Location: USNO
(38.9242°N, 77.0663°W)
Time: 15:35:34
(UTC-04:00)

Tiangong 1 - Pass Details

Date: 13 October 2017
Orbit: 292 x 320 km, 42.8° (Epoch: 21 October)

Event Time Altitude Azimuth Distance (km) Brightness Sun altitude
Rises 19:53:22 0° 290° (WNW) 2,042 6.2 -16.6°
Reaches altitude 10° 19:55:22 10° 293° (WNW) 1,205 4.7 -16.9°
Enters shadow 19:57:58 72° 357° (N) 328 0.6 -17.5°
